星链-32048 (STARLINK-32048)

导读 | 豆包AI

STARLINK-32048是美国于北京时间2024年6月27日8点发射的星链卫星,隶属于SpaceX公司的星链计划。星链计划旨在构建全球卫星互联网星座,为全球提供高速低延迟互联网服务。该卫星入轨后,将和其他星链卫星组网,进一步扩大星链星座的服务覆盖范围。

基本信息
目录编号:
60156
目录名称:
STARLINK-32048
国际标识:
2024-120X
轨道中心:
EARTH
卫星名称:
星链-32048
卫星全名:
星链-32048 (STARLINK-32048)
卫星状态:
在轨 (已飞行673 天)
发射日期:
2024-06-27 UTC
国别 :
美国 (US)
星等 :
--
轨道信息
数据来源 国际轨道数据 AOE轨道数据
星历时间 2026-04-30T13:01:43+0800
22小时前
查看轨道信息
2026-04-26T23:00:00+0800
4天前
查看轨道信息
半长轴 6853.387km 6853.372km
偏心率 0.0001329 0.0001612
轨道倾角 53.160° 53.154°
近地点辐角 84.439° 111.844°
升交点赤经 80.649° 97.297°
平近点角 275.676° 291.233°
近地点 474.339km 474.13km
远地点 476.161km 476.34km
周期 94.106分钟 94.106分钟
每日圈数 15.301886 15.301936
详细信息
固有亮度:
5
最大亮度:
2.5
卫星平台:
Starlink V1.0
覆盖范围:
全球
运营商:
太空探索技术公司
运营商所在国:
美国
制造商(研发单位):
太空探索技术公司
制造商所在国:
美国
使用方式:
暂无
卫星简介
Starlink 计划是 SpaceX 推出的全球卫星互联网项目,通过发射低轨道卫星,为全球尤其是偏远地区提供高速、低延迟的互联网服务。自 2019 年起,Starlink 已部署数千颗卫星,旨在缩小全球数字鸿沟,推动互联网普及。该项目还为军事、航空等行业提供通信支持,带来广泛经济效益。
2D轨道图
3D轨道图
轨道高度分析图
轨道倾角分析图
轨道综合分析图
查看轨道综合分析图